• In Netherlands
  • List of Countries
  • For 7 days
  • Water Temperature
  • Satellite Maps
  • Weather Map
  • Weather Widgets
  • user-avatar
    Login

    Hourly Weather Kabul

    Today, 30 April, Sunday

    Time Temperature Precipitation Wind Pressure Humidity
    00:00 +10°C° 0 mm 3 mps 610 mmHg 27%
    01:00 +10°C° 0 mm 3 mps 609 mmHg 28%
    02:00 +9°C° 0 mm 3 mps 609 mmHg 29%
    03:00 +9°C° 0 mm 3 mps 609 mmHg 29%
    04:00 +9°C° 0 mm 3 mps 608 mmHg 29%
    05:00 +8°C° 0 mm 3 mps 608 mmHg 29%
    06:00 +10°C° 0 mm 3 mps 609 mmHg 25%
    07:00 +11°C° 0 mm 3 mps 610 mmHg 22%
    08:00 +13°C° 0 mm 3 mps 610 mmHg 19%
    09:00 +14°C° 0 mm 3 mps 611 mmHg 16%
    10:00 +17°C° 0 mm 3 mps 611 mmHg 13%
    11:00 +19°C° 0 mm 3 mps 612 mmHg 11%
    12:00 +20°C° 0 mm 3 mps 612 mmHg 10%
    13:00 +20°C° 0 mm 3 mps 612 mmHg 10%
    14:00 +21°C° 0 mm 4 mps 612 mmHg 9%
    15:00 +21°C° 0 mm 4 mps 612 mmHg 9%
    16:00 +21°C° 0 mm 4 mps 612 mmHg 9%
    17:00 +21°C° 0 mm 4 mps 611 mmHg 10%
    18:00 +19°C° 0 mm 3 mps 611 mmHg 12%
    19:00 +17°C° 0 mm 3 mps 610 mmHg 14%
    20:00 +15°C° 0 mm 2 mps 610 mmHg 17%
    21:00 +14°C° 0 mm 2 mps 610 mmHg 18%
    22:00 +14°C° 0 mm 2 mps 610 mmHg 20%
    23:00 +13°C° 0 mm 2 mps 610 mmHg 22%

    Tomorrow, 1 May, Monday

    Time Temperature Precipitation Wind Pressure Humidity
    00:00 +12°C° 0 mm 2 mps 609 mmHg 22%
    01:00 +12°C° 0 mm 2 mps 609 mmHg 22%
    02:00 +10°C° 0 mm 2 mps 608 mmHg 23%
    03:00 +10°C° 0 mm 2 mps 608 mmHg 22%
    04:00 +10°C° 0 mm 2 mps 608 mmHg 22%
    05:00 +9°C° 0 mm 2 mps 607 mmHg 21%
    06:00 +12°C° 0 mm 2 mps 608 mmHg 19%
    07:00 +14°C° 0 mm 1 mps 609 mmHg 17%
    08:00 +16°C° 0 mm 1 mps 611 mmHg 15%
    09:00 +18°C° 0 mm 1 mps 611 mmHg 13%
    10:00 +20°C° 0 mm 1 mps 612 mmHg 11%
    11:00 +21°C° 0 mm 1 mps 612 mmHg 10%
    12:00 +22°C° 0 mm 1 mps 612 mmHg 9%
    13:00 +23°C° 0 mm 1 mps 612 mmHg 9%
    14:00 +24°C° 0 mm 2 mps 612 mmHg 9%
    15:00 +24°C° 0 mm 2 mps 612 mmHg 9%
    16:00 +24°C° 0 mm 2 mps 612 mmHg 9%
    17:00 +24°C° 0 mm 2 mps 612 mmHg 9%
    18:00 +21°C° 0 mm 2 mps 611 mmHg 11%
    19:00 +19°C° 0 mm 2 mps 611 mmHg 13%
    20:00 +17°C° 0 mm 2 mps 610 mmHg 16%
    21:00 +18°C° 0 mm 1 mps 610 mmHg 17%
    22:00 +16°C° 0 mm 1 mps 610 mmHg 18%
    23:00 +15°C° 0 mm 1 mps 610 mmHg 19%

    Day after tomorrow, 2 May, Tuesday

    Time Temperature Precipitation Wind Pressure Humidity
    00:00 +15°C° 0 mm 1 mps 610 mmHg 20%
    01:00 +14°C° 0 mm 1 mps 609 mmHg 21%
    02:00 +14°C° 0 mm 1 mps 609 mmHg 22%
    03:00 +14°C° 0 mm 1 mps 609 mmHg 22%
    04:00 +13°C° 0 mm 1 mps 609 mmHg 22%
    05:00 +13°C° 0 mm 1 mps 608 mmHg 22%
    06:00 +14°C° 0 mm 1 mps 609 mmHg 20%
    07:00 +16°C° 0 mm 1 mps 610 mmHg 18%
    08:00 +18°C° 0 mm 1 mps 611 mmHg 16%
    09:00 +18°C° 0 mm 2 mps 611 mmHg 17%
    10:00 +18°C° 0 mm 2 mps 612 mmHg 18%
    11:00 +19°C° 0 mm 2 mps 612 mmHg 19%
    12:00 +20°C° 0 mm 2 mps 612 mmHg 20%
    13:00 +20°C° 0 mm 2 mps 612 mmHg 20%
    14:00 +21°C° 0 mm 2 mps 612 mmHg 21%
    15:00 +20°C° 0.1 mm 2 mps 612 mmHg 22%
    16:00 +20°C° 0.1 mm 2 mps 611 mmHg 23%
    17:00 +20°C° 0.1 mm 3 mps 611 mmHg 24%
    18:00 +19°C° 0 mm 2 mps 611 mmHg 27%
    19:00 +18°C° 0 mm 2 mps 611 mmHg 30%
    20:00 +16°C° 0 mm 1 mps 611 mmHg 33%
    21:00 +16°C° 0 mm 1 mps 611 mmHg 34%
    22:00 +15°C° 0 mm 1 mps 611 mmHg 35%
    23:00 +15°C° 0 mm 1 mps 611 mmHg 37%

    3 May, Wednesday

    Time Temperature Precipitation Wind Pressure Humidity
    00:00 +14°C° 0 mm 1 mps 610 mmHg 38%
    01:00 +14°C° 0 mm 1 mps 610 mmHg 39%
    02:00 +13°C° 0 mm 1 mps 609 mmHg 40%
    03:00 +13°C° 0 mm 1 mps 609 mmHg 42%
    04:00 +12°C° 0 mm 1 mps 608 mmHg 43%
    05:00 +12°C° 0 mm 1 mps 608 mmHg 45%
    06:00 +13°C° 0 mm 1 mps 609 mmHg 41%
    07:00 +15°C° 0 mm 1 mps 610 mmHg 37%
    08:00 +16°C° 0 mm 1 mps 610 mmHg 33%
    09:00 +18°C° 0 mm 1 mps 611 mmHg 30%
    10:00 +19°C° 0 mm 1 mps 611 mmHg 28%
    11:00 +20°C° 0 mm 2 mps 612 mmHg 25%
    12:00 +21°C° 0 mm 2 mps 611 mmHg 23%
    13:00 +23°C° 0 mm 2 mps 611 mmHg 21%
    14:00 +24°C° 0 mm 2 mps 611 mmHg 19%
    15:00 +22°C° 0.1 mm 3 mps 611 mmHg 19%
    16:00 +22°C° 0.1 mm 3 mps 611 mmHg 19%
    17:00 +22°C° 0.1 mm 3 mps 610 mmHg 19%
    18:00 +21°C° 0.1 mm 2 mps 610 mmHg 21%
    19:00 +19°C° 0.1 mm 2 mps 610 mmHg 24%
    20:00 +18°C° 0.1 mm 2 mps 609 mmHg 26%
    21:00 +18°C° 0 mm 1 mps 609 mmHg 28%
    22:00 +16°C° 0 mm 1 mps 609 mmHg 30%
    23:00 +15°C° 0 mm 1 mps 609 mmHg 31%

    4 May, Thursday

    Time Temperature Precipitation Wind Pressure Humidity
    00:00 +15°C° 0 mm 1 mps 609 mmHg 32%
    01:00 +14°C° 0 mm 1 mps 608 mmHg 33%
    02:00 +13°C° 0 mm 1 mps 608 mmHg 34%
    03:00 +13°C° 0 mm 1 mps 607 mmHg 35%
    04:00 +12°C° 0 mm 1 mps 607 mmHg 35%
    05:00 +12°C° 0 mm 1 mps 607 mmHg 35%
    06:00 +14°C° 0 mm 1 mps 608 mmHg 31%
    07:00 +15°C° 0 mm 1 mps 609 mmHg 27%
    08:00 +18°C° 0 mm 1 mps 610 mmHg 23%
    09:00 +19°C° 0 mm 1 mps 611 mmHg 20%
    10:00 +20°C° 0 mm 1 mps 611 mmHg 18%
    11:00 +21°C° 0 mm 2 mps 612 mmHg 15%
    12:00 +23°C° 0 mm 2 mps 612 mmHg 14%
    13:00 +24°C° 0 mm 2 mps 612 mmHg 12%
    14:00 +24°C° 0 mm 2 mps 611 mmHg 11%
    15:00 +25°C° 0 mm 3 mps 611 mmHg 10%
    16:00 +25°C° 0 mm 3 mps 611 mmHg 10%
    17:00 +25°C° 0 mm 3 mps 611 mmHg 10%
    18:00 +22°C° 0 mm 3 mps 611 mmHg 13%
    19:00 +20°C° 0 mm 2 mps 610 mmHg 15%
    20:00 +18°C° 0 mm 2 mps 610 mmHg 18%
    21:00 +18°C° 0 mm 1 mps 610 mmHg 20%
    22:00 +16°C° 0 mm 1 mps 610 mmHg 22%
    23:00 +15°C° 0 mm 1 mps 609 mmHg 24%

    5 May, Friday

    Time Temperature Precipitation Wind Pressure Humidity
    00:00 +15°C° 0 mm 1 mps 609 mmHg 25%
    01:00 +13°C° 0 mm 0 mps 608 mmHg 26%
    02:00 +12°C° 0 mm 0 mps 608 mmHg 27%
    03:00 +12°C° 0 mm 0 mps 608 mmHg 27%
    04:00 +11°C° 0 mm 0 mps 607 mmHg 26%
    05:00 +11°C° 0 mm 0 mps 607 mmHg 26%
    06:00 +13°C° 0 mm 0 mps 608 mmHg 22%
    07:00 +15°C° 0 mm 0 mps 609 mmHg 18%
    08:00 +19°C° 0 mm 1 mps 610 mmHg 14%
    09:00 +20°C° 0 mm 1 mps 611 mmHg 14%
    10:00 +21°C° 0 mm 1 mps 611 mmHg 13%
    11:00 +23°C° 0 mm 1 mps 612 mmHg 13%
    12:00 +23°C° 0 mm 1 mps 611 mmHg 13%
    13:00 +24°C° 0 mm 2 mps 611 mmHg 13%
    14:00 +24°C° 0 mm 2 mps 611 mmHg 14%
    15:00 +24°C° 0.1 mm 2 mps 611 mmHg 15%
    16:00 +24°C° 0.1 mm 2 mps 611 mmHg 16%
    17:00 +24°C° 0.1 mm 2 mps 611 mmHg 18%
    18:00 +21°C° 0.1 mm 2 mps 610 mmHg 21%
    19:00 +21°C° 0.1 mm 1 mps 610 mmHg 25%
    20:00 +19°C° 0.1 mm 1 mps 610 mmHg 29%
    21:00 +18°C° 0 mm 1 mps 610 mmHg 31%
    22:00 +18°C° 0 mm 1 mps 609 mmHg 32%
    23:00 +16°C° 0 mm 1 mps 609 mmHg 34%
    Show more